{"data":{"norad_id":58132,"intl_designator":"2023-162Q","name":"STARLINK-30770","alt_names":[],"object_type":"PAYLOAD","status":"ACTIVE","operator":null,"country":"US","launch_date":"2023-10-22","launch_site_code":"AFETR","launch_vehicle":null,"mission":null,"orbit_class":"UNKNOWN","rcs_meters":null,"size_class":null,"mass_kg":null,"dimensions":null,"purposes":["comms"],"wikipedia_slug":null,"has_3d_model":false,"image_url":null,"decayed_at":null,"tle_current":{"epoch":"2026-09-20T00:01:32.137824Z","epoch_age_seconds":183618,"freshness":"STALE","line1":"1 58132U 23162Q   26263.00106641  .00000384  00000+0  23489-4 0  9994","line2":"2 58132  43.0021 115.1754 0001592 269.2961  90.7708 15.27579094162017","mean_motion":15.27579094,"eccentricity":0.0001592,"inclination_deg":43.0021,"raan_deg":115.1754,"arg_perigee_deg":269.2961,"mean_anomaly_deg":90.7708,"bstar":2.3489e-5,"rev_number":16201,"period_min":94.266804622818,"perigee_km":481.95950767254,"apogee_km":484.14411018931,"semimajor_km":6861.1888089309,"source":"CELESTRAK","updated_at":"2026-09-21T09:00:33.793491Z"}}}